Temperature
17 17 16 16 16 16 16 16 16 16 16 15 16 16 15 15 15 15 15 15 15 15 15 15 15 15 15 15 15 15 15 15 15 15 15 15 14 14 14 14 14 14 14
16 16 16 16 16 16 16 16 15 15 15 15 15 15 15 15 15 15 15 15 15 15 15 15 15 15 15 15 15 15 15 15 15 14 14 14 14 14 14 14 13 13 13
16 16 16 16 16 16 16 16 15 15 15 15 15 15 15 15 15 15 15 15 14 14 15 15 14 15 15 15 14 14 14 14 14 14 14 14 14 14 14 14 13 13 13
16 16 16 16 15 15 15 15 15 15 15 15 15 15 15 14 14 14 14 14 14 14 14 14 14 14 14 14 14 14 14 14 14 14 14 14 14 13 13 13 13 13 13
16 15 15 15 15 15 15 15 15 15 15 14 14 14 14 14 14 14 14 14 14 14 14 14 14 14 14 14 14 14 14 14 14 14 14 14 14 13 13 13 13 13 13
15 15 15 15 15 15 15 15 15 14 14 14 14 14 14 14 14 14 14 14 14 14 14 14 14 14 14 14 14 14 14 14 14 14 14 13 13 13 13 13 13 13 13
15 15 14 14 14 14 14 14 14 14 14 14 14 14 14 14 14 14 14 14 13 13 14 13 14 14 13 13 13 13 13 14 14 13 13 13 13 13 13 12 12 12 12
14 14 14 14 14 14 14 14 14 14 14 13 13 13 13 14 14 14 14 13 13 13 13 13 13 13 13 13 13 13 13 13 13 13 13 13 13 13 13 12 12 12 12
14 14 14 13 13 13 13 13 13 13 13 13 13 13 13 13 14 14 14 13 13 13 13 13 13 13 13 13 13 12 12 12 13 13 13 13 13 13 12 12 12 12 12
14 14 14 13 13 13 13 13 13 13 13 13 12 13 13 13 13 13 13 13 13 13 12 12 12 13 13 13 12 12 12 12 12 12 12 12 12 12 12 12 12 12 12
13 13 13 13 13 13 13 13 12 12 12 12 12 12 12 12 12 13 13 12 12 12 12 12 12 12 12 12 12 12 12 12 12 12 12 12 12 12 12 11 11 11 11
13 13 13 13 12 12 12 12 12 12 12 12 12 12 12 12 12 12 12 12 12 12 12 12 12 12 12 12 12 12 12 11 11 11 11 11 11 11 11 11 11 11 11
13 12 12 12 12 12 12 12 11 11 12 12 12 12 12 12 12 12 12 12 12 12 11 12 12 12 12 12 12 12 11 11 11 11 11 11 11 11 11 11 11 11 11
12 12 12 12 12 11 11 11 11 11 12 12 11 12 12 11 11 11 11 11 11 11 11 11 11 11 11 11 11 11 11 11 11 11 11 11 11 11 11 11 10 10 10
12 12 11 11 11 11 11 11 11 11 11 11 11 11 11 11 11 11 11 11 11 11 11 10 10 10 10 10 10 10 10 10 10 10 10 10 10 10 10 10 10 10 10
11 11 11 11 11 11 11 11 11 11 11 11 11 11 11 11 11 11 11 11 11 10 10 10 10 10 10 11 10 10 10 10 10 10 10 10 10 10 10 10 10 10 10
11 11 11 11 11 11 11 11 11 11 11 11 10 10 10 10 10 10 10 10 10 10 10 10 10 10 10 10 10 10 10 10 10 10 10 10 10 10 10 10 10 10 10
11 11 11 11 11 11 11 11 11 11 11 10 10 10 10 10 10 10 10 10 10 10 10 10 10 10 10 10 10 10 10 10 10 9 9 9 9 9 9 9 9 9 9
11 11 10 11 11 11 11 11 10 10 10 10 10 10 10 10 10 10 10 10 9 10 10 10 10 10 10 10 10 10 10 9 9 9 9 9 9 9 9 9 9 9 9
10 10 10 10 10 11 10 10 10 10 10 10 10 10 10 9 9 9 10 9 9 9 10 10 10 10 10 10 9 9 9 9 9 9 9 9 9 9 9 9 9 9 9
10 10 10 10 10 10 10 10 10 10 10 10 10 9 9 9 9 9 9 9 9 9 9 9 9 9 9 9 9 9 9 9 9 9 9 9 9 8 8 8 8 9 9
10 10 10 10 10 10 10 10 10 10 10 10 10 9 9 9 9 9 9 9 9 9 9 9 9 9 9 9 9 9 9 9 9 8 8 8 8 8 8 8 8 8 8
10 10 10 9 9 9 9 9 10 10 10 9 9 9 9 9 9 9 9 9 9 9 9 9 9 9 9 9 8 8 8 8 8 8 8 8 8 8 8 8 8 8 8
10 10 10 9 9 9 9 9 9 9 9 9 9 9 9 9 8 8 8 8 8 8 8 8 8 8 8 8 8 8 8 8 8 8 8 8 7 7 7 7 7 8 8
9 9 9 9 9 9 9 9 9 9 9 9 9 9 9 8 8 8 8 8 8 8 8 8 8 8 8 8 8 8 8 8 8 7 7 7 7 7 7 7 7 7 7
9 9 9 9 9 9 9 9 9 9 9 8 8 8 8 8 8 8 8 8 7 7 7 7 7 7 8 8 7 7 7 7 7 7 7 7 7 7 7 7 7 7 7
Wind_Speed
2 2 2 2 3 3 3 3 2 2 1 1 1 1 1 1 1 1 1 1 2 1 1 1 1 1 1 1 1 2 2 2 2 2 0 1 2 1 1 2 3 3 4
2 2 1 1 2 2 2 2 2 2 2 2 2 2 2 1 1 2 2 2 2 2 1 1 1 1 1 1 1 1 2 2 2 2 1 1 1 2 2 2 2 2 3
1 2 1 1 1 1 2 2 2 2 2 2 2 2 2 1 2 2 2 2 2 2 2 1 1 1 1 1 1 1 2 1 2 2 2 1 1 1 2 2 2 2 3
1 1 1 2 1 1 1 1 2 2 2 2 2 2 2 2 2 2 2 2 2 2 2 2 2 2 2 2 1 2 1 1 2 2 2 2 1 2 2 2 2 2 2
1 1 1 1 1 1 1 1 1 2 2 2 2 2 1 2 1 2 2 2 2 2 2 2 2 1 0 1 1 1 2 2 2 2 2 2 1 2 2 2 2 2 2
0 1 1 1 1 1 2 2 2 2 2 2 2 2 2 1 2 1 2 2 2 3 2 2 3 3 3 3 2 1 2 3 3 3 3 2 2 2 2 3 3 3 3
0 1 1 1 1 1 2 2 2 2 2 2 1 1 1 0 1 1 1 2 2 2 3 3 3 2 3 3 4 5 4 4 4 4 4 4 3 2 3 4 3 4 4
0 1 1 1 1 1 1 1 2 2 2 2 2 2 1 0 1 1 1 3 3 3 3 3 3 3 2 2 3 3 3 3 4 5 4 4 3 3 4 4 4 4 4
0 1 1 2 2 2 2 1 1 2 1 2 2 2 2 1 1 1 2 2 3 3 3 4 4 4 2 2 4 4 4 3 3 4 4 4 3 4 4 4 3 4 3
1 2 2 2 2 2 2 1 1 1 1 2 1 2 2 2 1 2 3 3 3 3 3 4 3 3 2 3 4 4 5 4 4 3 5 6 5 5 7 5 5 4 4
2 1 2 2 2 2 2 1 1 1 1 1 1 2 2 2 2 2 3 3 3 3 3 3 2 4 4 4 5 5 4 4 4 5 5 5 4 4 4 4 5 5 5
2 1 2 2 2 1 2 2 2 2 2 2 2 2 2 2 1 2 2 3 4 3 3 3 1 3 3 4 4 4 4 5 5 5 5 4 4 4 3 3 4 5 5
2 2 2 2 2 2 2 2 2 2 2 2 2 2 2 2 1 4 4 4 3 3 2 1 0 3 4 5 6 6 6 6 5 5 5 5 4 3 3 3 4 4 6
2 2 2 2 2 1 2 2 3 3 3 3 3 3 3 2 2 2 2 2 3 3 2 2 4 5 5 4 5 6 6 5 5 5 5 4 3 3 4 4 4 4 4
3 3 3 2 1 1 2 2 3 3 3 4 3 3 3 3 1 2 2 2 2 2 2 3 3 3 4 4 4 4 4 4 5 5 5 5 4 4 4 4 3 4 4
3 3 3 2 2 2 2 2 1 2 0 1 4 4 3 1 2 0 1 2 2 3 4 4 4 4 4 5 4 4 4 4 4 4 5 5 5 4 4 4 4 4 4
4 3 3 3 3 3 3 3 2 2 2 2 3 4 4 2 0 2 3 3 4 4 4 5 4 5 5 5 5 5 4 4 3 4 5 5 5 5 5 5 5 4 4
4 4 4 3 4 3 3 3 3 3 2 2 3 4 4 4 4 3 3 3 3 4 5 5 5 5 5 5 5 5 4 4 4 5 5 5 5 5 5 5 5 5 5
4 4 3 3 4 3 3 3 3 3 3 3 2 2 3 3 4 3 4 4 4 5 5 5 5 5 4 4 4 4 5 4 5 5 5 5 5 5 5 5 5 4 5
3 2 3 3 3 3 3 3 3 3 3 3 3 3 1 2 2 2 3 4 5 5 5 5 5 5 5 5 4 4 5 5 5 5 5 5 5 5 6 6 6 5 5
2 2 4 3 2 2 3 3 3 3 3 3 3 2 1 3 4 4 4 4 4 5 5 5 5 5 5 5 5 5 5 5 5 5 4 4 4 4 5 5 5 5 4
2 2 2 2 2 2 3 3 3 3 3 3 3 2 3 4 4 4 4 4 4 4 5 5 5 5 5 5 5 5 5 5 5 5 4 4 4 4 4 4 4 4 4
2 2 2 2 2 2 3 3 3 3 3 3 3 3 2 3 3 4 4 5 4 4 5 5 5 5 4 4 4 5 5 5 5 4 4 4 3 4 4 4 5 5 5
2 2 2 2 2 2 3 3 3 3 4 3 3 3 4 3 4 4 5 4 4 4 5 5 5 5 5 4 4 5 4 4 4 3 4 4 4 4 4 4 5 6 5
3 2 2 2 2 3 3 3 3 3 3 3 4 4 4 4 4 4 4 4 5 5 5 5 4 4 5 5 4 4 2 1 2 3 3 3 4 4 4 4 5 5 5
2 2 2 2 2 3 3 3 3 3 3 3 4 4 4 4 4 4 4 4 4 5 4 4 4 4 4 4 3 2 1 1 1 3 3 3 3 3 4 4 5 5 5
Wind_Direction
188 198 216 222 225 233 245 253 248 258 251 237 247 247 243 231 207 199 217 174 183 186 189 177 212 289 260 247 239 243 246 243 233 251 215 131 141 134 129 156 162 160 138
177 182 190 212 226 234 239 249 239 235 232 226 232 232 233 217 196 195 207 199 193 187 181 186 216 200 220 262 271 261 253 250 237 231 250 199 171 177 184 199 178 164 152
170 180 182 217 223 242 249 238 222 217 221 224 215 219 217 199 191 193 199 203 205 203 201 202 223 225 235 249 276 274 260 235 233 222 236 239 219 204 197 189 180 197 188
162 189 199 225 232 232 242 235 210 200 202 199 198 209 215 211 195 194 198 201 207 207 207 214 222 226 236 233 225 247 259 243 222 230 224 219 210 211 216 212 206 205 210
157 202 220 220 229 225 230 228 214 205 197 184 186 193 213 226 221 206 202 203 213 219 219 220 219 191 352 279 266 264 258 250 234 228 230 236 232 229 241 243 237 235 214
204 246 255 220 221 223 218 208 197 202 202 189 199 207 215 233 40 358 253 214 216 223 231 231 213 194 184 184 198 239 272 257 265 265 254 258 256 255 256 252 255 254 249
309 290 282 255 224 228 221 202 199 201 198 201 214 222 232 232 78 77 276 239 230 236 241 245 246 217 203 208 192 197 211 228 243 259 262 269 261 257 259 253 255 270 282
295 334 329 294 249 232 223 211 207 207 208 208 218 221 239 208 105 186 255 238 246 243 241 240 239 239 221 226 233 230 232 229 230 233 249 265 273 269 258 261 258 250 253
315 331 304 293 264 246 236 234 218 212 211 221 222 234 242 231 157 227 255 242 241 248 248 242 237 233 177 216 232 238 247 248 222 217 232 251 271 257 264 255 250 243 249
306 315 310 287 266 250 252 243 233 231 224 231 227 245 253 259 193 215 247 245 240 242 237 236 227 219 190 208 234 240 244 251 258 240 224 227 232 221 216 236 250 248 259
301 313 301 285 265 243 231 228 231 236 238 244 244 250 251 256 170 177 257 257 257 252 250 246 232 163 186 214 242 244 250 262 258 252 244 239 235 231 226 228 245 251 256
288 292 292 286 279 241 217 222 223 230 231 236 239 250 243 234 195 172 213 258 293 274 268 265 245 147 185 220 235 245 249 251 252 252 253 250 248 249 247 246 244 256 261
273 278 278 276 274 259 230 224 223 227 244 247 248 252 260 263 201 166 193 220 258 269 285 353 242 192 208 221 225 234 237 244 245 247 252 252 255 257 256 246 238 235 242
258 267 266 260 262 260 257 247 244 241 243 251 259 266 269 266 266 240 222 213 209 233 262 212 200 211 229 243 230 228 236 245 252 254 258 257 252 249 246 248 250 246 245
254 255 252 248 250 274 278 280 271 276 284 275 269 268 267 267 297 5 298 277 276 280 275 255 244 239 237 236 234 235 237 237 239 247 252 249 244 245 251 256 257 259 256
240 243 250 251 243 248 261 282 305 282 49 313 311 304 299 20 87 137 289 299 302 282 268 260 258 257 256 251 245 241 236 237 242 246 247 245 243 241 249 253 251 256 260
245 247 254 248 241 241 245 259 270 247 214 245 261 268 271 284 214 228 241 242 240 240 250 257 257 260 260 257 256 253 249 245 249 251 250 246 244 244 244 249 250 250 257
238 221 235 240 244 243 246 252 260 267 263 261 231 222 232 230 228 226 220 218 241 239 253 260 263 262 262 261 261 261 257 252 247 247 248 246 245 247 248 248 250 253 256
241 232 231 247 250 248 250 253 260 268 269 269 270 215 209 218 215 214 208 242 258 258 257 260 266 268 267 265 263 264 263 258 255 252 247 243 243 243 247 252 253 245 256
233 216 242 245 247 251 252 256 261 266 267 266 266 275 235 226 247 240 239 255 258 263 269 268 271 274 272 272 268 262 258 253 249 244 245 243 241 243 246 249 251 251 252
240 197 208 247 253 261 265 269 271 271 270 266 267 282 294 262 258 261 260 258 263 267 270 272 271 270 266 264 266 261 259 258 250 248 248 247 245 245 249 247 246 252 253
243 227 221 238 252 266 271 271 273 272 271 274 278 236 198 253 268 268 269 268 267 270 272 268 268 267 265 263 262 262 260 258 256 254 250 245 245 248 250 250 250 253 255
236 232 224 234 253 249 256 262 267 271 276 275 277 277 254 263 273 276 277 278 277 279 280 274 273 276 275 270 268 264 261 262 262 257 245 240 241 245 248 250 253 258 257
231 234 241 244 254 263 266 269 270 272 274 277 280 283 285 282 280 283 285 288 292 292 290 284 276 276 281 278 272 268 267 272 270 254 238 240 237 241 244 248 255 260 256
234 234 239 248 255 261 265 271 277 283 289 289 286 284 287 287 286 286 290 293 297 299 303 304 299 286 284 279 277 280 305 318 284 276 247 242 239 246 248 248 250 256 257
248 254 253 254 261 266 269 275 281 288 291 291 291 289 291 292 291 291 293 300 303 302 301 304 313 313 307 293 299 333 70 130 241 265 257 244 248 254 254 249 251 254 259
Height
1516 1515 1515 1515 1515 1515 1515 1515 1514 1515 1515 1515 1515 1515 1514 1514 1514 1514 1515 1514 1514 1514 1514 1514 1514 1515 1516 1516 1516 1517 1517 1518 1518 1519 1519 1519 1518 1518 1518 1518 1518 1518 1518
1514 1514 1514 1514 1513 1513 1513 1512 1512 1513 1513 1513 1513 1513 1513 1513 1513 1513 1513 1513 1513 1513 1513 1513 1513 1513 1513 1514 1515 1515 1516 1516 1517 1517 1517 1517 1516 1516 1516 1516 1517 1517 1517
1513 1513 1513 1512 1512 1511 1511 1510 1510 1511 1511 1512 1511 1511 1511 1511 1511 1511 1512 1512 1512 1512 1512 1512 1512 1512 1512 1513 1513 1514 1514 1515 1515 1515 1515 1515 1515 1515 1515 1516 1516 1516 1516
1511 1511 1511 1511 1510 1509 1509 1509 1508 1509 1509 1509 1509 1509 1509 1510 1509 1510 1510 1511 1511 1511 1511 1511 1511 1511 1511 1511 1511 1512 1512 1513 1513 1513 1513 1514 1514 1513 1514 1514 1514 1515 1515
1509 1509 1509 1509 1508 1508 1507 1507 1507 1507 1507 1507 1507 1508 1508 1508 1508 1507 1508 1509 1509 1509 1509 1509 1509 1509 1509 1509 1510 1510 1510 1511 1511 1512 1512 1512 1512 1512 1512 1512 1513 1513 1512
1508 1508 1507 1507 1507 1506 1505 1505 1505 1505 1505 1505 1505 1506 1506 1506 1506 1505 1506 1506 1507 1507 1507 1507 1507 1507 1507 1507 1508 1508 1508 1509 1509 1510 1510 1510 1510 1510 1510 1510 1510 1510 1511
1506 1506 1505 1505 1505 1504 1504 1504 1503 1503 1503 1504 1504 1504 1504 1503 1503 1503 1503 1504 1504 1505 1505 1505 1506 1506 1505 1506 1506 1506 1506 1506 1507 1507 1507 1507 1507 1507 1507 1507 1507 1507 1507
1504 1504 1503 1503 1503 1502 1502 1502 1502 1501 1501 1501 1501 1501 1501 1501 1501 1501 1501 1501 1502 1502 1502 1502 1503 1503 1503 1504 1504 1504 1504 1504 1504 1504 1504 1504 1505 1504 1504 1504 1504 1504 1504
1503 1502 1502 1502 1501 1500 1500 1500 1500 1499 1499 1499 1499 1499 1499 1499 1499 1499 1499 1499 1499 1499 1500 1500 1500 1500 1500 1501 1501 1501 1501 1501 1501 1501 1501 1501 1501 1501 1501 1501 1502 1502 1502
1501 1500 1500 1499 1499 1499 1498 1498 1498 1497 1497 1497 1497 1497 1496 1496 1496 1496 1496 1497 1496 1497 1497 1497 1496 1497 1497 1497 1498 1498 1498 1498 1499 1498 1498 1498 1498 1498 1498 1498 1498 1499 1498
1499 1498 1498 1497 1497 1497 1496 1496 1496 1495 1495 1495 1495 1495 1494 1494 1494 1494 1493 1494 1494 1494 1494 1494 1494 1493 1493 1493 1494 1494 1494 1495 1495 1495 1495 1495 1495 1495 1495 1495 1495 1495 1496
1496 1496 1496 1495 1495 1495 1494 1494 1493 1493 1493 1493 1493 1493 1493 1492 1492 1491 1491 1491 1491 1491 1491 1491 1490 1490 1490 1490 1490 1490 1491 1491 1492 1492 1492 1492 1492 1492 1491 1491 1491 1491 1491
1494 1494 1493 1493 1493 1493 1492 1492 1492 1491 1492 1491 1491 1491 1491 1490 1489 1489 1489 1489 1488 1488 1488 1488 1487 1487 1487 1487 1487 1487 1487 1488 1488 1489 1489 1489 1489 1488 1488 1488 1487 1487 1488
1492 1492 1491 1491 1491 1490 1490 1490 1490 1490 1489 1489 1489 1488 1487 1487 1487 1487 1487 1486 1486 1486 1485 1485 1484 1484 1484 1484 1483 1484 1484 1484 1485 1485 1485 1485 1485 1485 1484 1484 1485 1485 1485
1490 1490 1489 1489 1488 1488 1488 1488 1488 1487 1487 1487 1486 1486 1485 1484 1484 1484 1484 1484 1484 1483 1482 1482 1482 1482 1481 1481 1481 1481 1481 1481 1481 1481 1481 1481 1481 1481 1481 1481 1481 1481 1481
1487 1487 1487 1487 1486 1486 1486 1485 1484 1484 1484 1483 1483 1483 1482 1482 1481 1481 1481 1481 1480 1480 1480 1480 1479 1479 1479 1478 1478 1478 1477 1477 1477 1477 1477 1477 1477 1477 1477 1478 1478 1478 1478
1484 1484 1485 1485 1484 1484 1483 1483 1482 1482 1481 1481 1480 1480 1479 1479 1479 1478 1478 1478 1478 1477 1477 1477 1476 1476 1476 1475 1475 1474 1474 1474 1473 1473 1474 1474 1474 1474 1474 1474 1474 1474 1474
1481 1482 1482 1482 1482 1482 1481 1481 1481 1480 1479 1478 1477 1477 1476 1476 1476 1476 1475 1475 1475 1474 1474 1473 1473 1473 1473 1472 1471 1471 1470 1470 1470 1469 1470 1470 1470 1470 1470 1471 1471 1471 1471
1478 1479 1479 1480 1480 1480 1479 1479 1478 1477 1477 1476 1475 1474 1473 1473 1473 1473 1472 1472 1472 1472 1471 1470 1470 1470 1469 1469 1468 1467 1467 1466 1466 1466 1466 1465 1466 1466 1466 1467 1467 1467 1467
1476 1476 1476 1477 1477 1477 1477 1477 1476 1475 1475 1474 1473 1472 1471 1470 1470 1470 1469 1469 1469 1468 1468 1468 1467 1466 1466 1465 1465 1464 1463 1462 1462 1462 1462 1462 1462 1462 1462 1462 1463 1463 1463
1474 1474 1473 1474 1474 1474 1474 1474 1474 1473 1473 1472 1471 1470 1469 1469 1468 1468 1467 1466 1466 1465 1465 1464 1464 1463 1462 1461 1461 1460 1460 1459 1458 1458 1458 1458 1458 1458 1458 1458 1458 1459 1459
1471 1471 1471 1472 1472 1472 1472 1472 1472 1471 1471 1470 1469 1469 1467 1467 1467 1466 1465 1464 1463 1463 1462 1461 1460 1459 1458 1457 1457 1456 1456 1455 1455 1454 1454 1454 1453 1454 1454 1455 1455 1455 1456
1469 1469 1470 1470 1470 1470 1470 1470 1469 1469 1468 1468 1467 1467 1466 1465 1465 1464 1463 1462 1461 1460 1459 1458 1457 1456 1454 1454 1453 1452 1452 1451 1451 1450 1450 1450 1450 1450 1451 1451 1451 1452 1452
1468 1468 1468 1468 1468 1468 1468 1467 1467 1466 1466 1465 1465 1464 1464 1463 1462 1462 1460 1459 1458 1457 1456 1454 1453 1452 1451 1450 1449 1448 1448 1447 1447 1446 1446 1446 1447 1447 1448 1448 1448 1449 1449
1466 1467 1467 1466 1466 1466 1466 1465 1465 1464 1464 1463 1462 1462 1461 1460 1460 1459 1458 1456 1455 1454 1452 1451 1450 1448 1447 1446 1445 1444 1443 1443 1443 1443 1443 1443 1444 1444 1444 1445 1445 1445 1446
1465 1465 1465 1464 1464 1464 1464 1463 1463 1462 1461 1461 1460 1459 1458 1457 1457 1456 1455 1453 1452 1451 1450 1448 1447 1445 1444 1443 1442 1441 1440 1440 1440 1440 1440 1440 1441 1441 1442 1442 1443 1442 1442